TOM10V EGNT-GCTS

Flight info

Callsign TOM10V
Flight time 4h 23m
Altitude 33000
Route GIRLI P18 GASKO P16 RIBEL UP16 NOKIN N862 RISLA/N0446F350 N862 KARNO/N0442F340 DCT ALHUP DCT ABWIV DCT PACSE DCT SIDHO DCT TONQU DCT SALCO/N0453F350 DCT BALDA DCT ABUPI DCT XAMAX DCT EKMAR/N0448F370 DCT BEXAL UN866 KONBA
Aircraft B738/M-SDE2E3FGHIRWXY/LB1

Departure

Time 2026-04-27 12:32
Airport Newcastle International Airport (EGNT)

Arrival

Time 2026-04-27 16:56
Airport Tenerife Sur Airport (GCTS)
Time Latitude Longitude Altitude Speed Heading
2026-04-27 11:56 55.04079 -1.70211 266 ft 0 kts 70°
2026-04-27 12:24 55.04078 -1.70214 266 ft 1 kts 70°
2026-04-27 12:24 55.04072 -1.70241 266 ft 3 kts 70°
2026-04-27 12:24 55.04065 -1.70273 266 ft 3 kts 73°
2026-04-27 12:25 55.04063 -1.70298 266 ft 3 kts 130°
2026-04-27 12:25 55.04073 -1.70309 266 ft 2 kts 183°
2026-04-27 12:25 55.04084 -1.70307 266 ft 2 kts 184°
2026-04-27 12:25 55.04088 -1.70307 266 ft 0 kts 184°
2026-04-27 12:28 55.04077 -1.70308 266 ft 5 kts 184°
2026-04-27 12:28 55.04020 -1.70321 266 ft 11 kts 197°
2026-04-27 12:29 55.03947 -1.70379 266 ft 12 kts 187°
2026-04-27 12:29 55.03863 -1.70389 266 ft 12 kts 184°
2026-04-27 12:29 55.03784 -1.70417 266 ft 12 kts 195°
2026-04-27 12:29 55.03706 -1.70434 266 ft 11 kts 185°
2026-04-27 12:30 55.03629 -1.70445 266 ft 11 kts 190°
2026-04-27 12:30 55.03595 -1.70547 266 ft 11 kts 266°
2026-04-27 12:30 55.03558 -1.70640 266 ft 10 kts 195°
2026-04-27 12:30 55.03488 -1.70645 266 ft 10 kts 182°
2026-04-27 12:31 55.03420 -1.70647 267 ft 10 kts 175°
2026-04-27 12:31 55.03370 -1.70586 267 ft 9 kts 96°
2026-04-27 12:31 55.03395 -1.70476 266 ft 12 kts 65°
2026-04-27 12:31 55.03489 -1.70126 262 ft 67 kts 65°
2026-04-27 12:32 55.03792 -1.68983 252 ft 137 kts 65°
2026-04-27 12:32 55.04239 -1.67230 592 ft 167 kts 64°
2026-04-27 12:32 55.04752 -1.65420 1546 ft 166 kts 59°
2026-04-27 12:32 55.05320 -1.63531 2051 ft 187 kts 58°
2026-04-27 12:33 55.05739 -1.61258 2308 ft 210 kts 86°
2026-04-27 12:33 55.05409 -1.58673 2689 ft 224 kts 105°
2026-04-27 12:33 55.04746 -1.56186 3197 ft 233 kts 121°
2026-04-27 12:33 55.03773 -1.53800 3498 ft 250 kts 128°
2026-04-27 12:34 55.02327 -1.51980 3690 ft 276 kts 162°
2026-04-27 12:34 55.00404 -1.51788 4291 ft 279 kts 189°
2026-04-27 12:34 54.98483 -1.52235 5099 ft 277 kts 186°
2026-04-27 12:34 54.96615 -1.52941 5835 ft 276 kts 211°
2026-04-27 12:35 54.95082 -1.54918 6531 ft 275 kts 220°
2026-04-27 12:35 54.93517 -1.56877 7200 ft 279 kts 217°
2026-04-27 12:35 54.91893 -1.58746 7851 ft 281 kts 216°
2026-04-27 12:35 54.90228 -1.60577 8474 ft 285 kts 214°
2026-04-27 12:36 54.88530 -1.62394 9128 ft 288 kts 214°
2026-04-27 12:36 54.86808 -1.64202 9795 ft 289 kts 213°
2026-04-27 12:36 54.85091 -1.65984 10399 ft 293 kts 213°
2026-04-27 12:36 54.83300 -1.67833 10655 ft 308 kts 213°
2026-04-27 12:37 54.81402 -1.69787 10819 ft 326 kts 213°
2026-04-27 12:37 54.79394 -1.71844 11029 ft 341 kts 213°
2026-04-27 12:37 54.77329 -1.73953 11516 ft 347 kts 213°
2026-04-27 12:37 54.75243 -1.76079 12142 ft 349 kts 213°
2026-04-27 12:38 54.73137 -1.78219 12758 ft 352 kts 214°
2026-04-27 12:38 54.70991 -1.80273 13425 ft 357 kts 206°
2026-04-27 12:38 54.68550 -1.81328 14074 ft 366 kts 193°
2026-04-27 12:38 54.66020 -1.82044 14657 ft 370 kts 193°
2026-04-27 12:39 54.63470 -1.82779 15249 ft 373 kts 194°
2026-04-27 12:39 54.60902 -1.83558 15895 ft 375 kts 194°
2026-04-27 12:39 54.58333 -1.84366 16519 ft 377 kts 195°
2026-04-27 12:39 54.55794 -1.85340 17107 ft 377 kts 203°
2026-04-27 12:40 54.53372 -1.87011 17719 ft 376 kts 209°
2026-04-27 12:40 54.50971 -1.88853 18349 ft 378 kts 210°
2026-04-27 12:40 54.48564 -1.90727 18893 ft 381 kts 210°
2026-04-27 12:40 54.46129 -1.92613 19376 ft 384 kts 210°
2026-04-27 12:41 54.43674 -1.94497 19787 ft 390 kts 210°
2026-04-27 12:41 54.41169 -1.96402 20123 ft 397 kts 210°
2026-04-27 12:41 54.39482 -1.97676 20347 ft 401 kts 210°
2026-04-27 12:41 54.36060 -2.00243 20878 ft 408 kts 210°
2026-04-27 12:42 54.33437 -2.02201 21236 ft 414 kts 210°
2026-04-27 12:42 54.30779 -2.04179 21606 ft 418 kts 211°
2026-04-27 12:42 54.28091 -2.06176 21984 ft 423 kts 211°
2026-04-27 12:42 54.26293 -2.07509 22251 ft 426 kts 211°
2026-04-27 12:43 54.23552 -2.09539 22616 ft 430 kts 211°
2026-04-27 12:43 54.19895 -2.12242 23112 ft 432 kts 211°
2026-04-27 12:43 54.18020 -2.13626 23308 ft 436 kts 211°
2026-04-27 12:43 54.15245 -2.15676 23569 ft 442 kts 211°
2026-04-27 12:44 54.12412 -2.17766 23878 ft 446 kts 212°
2026-04-27 12:44 54.09554 -2.19867 24195 ft 448 kts 212°
2026-04-27 12:44 54.06683 -2.21973 24525 ft 450 kts 212°
2026-04-27 12:44 54.03805 -2.24082 24829 ft 453 kts 212°
2026-04-27 12:45 54.00892 -2.26216 25076 ft 456 kts 211°
2026-04-27 12:45 53.97970 -2.28353 25354 ft 459 kts 211°
2026-04-27 12:45 53.95030 -2.30499 25666 ft 460 kts 211°
2026-04-27 12:45 53.92087 -2.32642 26009 ft 461 kts 211°
2026-04-27 12:46 53.89134 -2.34792 26254 ft 464 kts 211°
2026-04-27 12:46 53.86141 -2.36969 26487 ft 468 kts 211°
2026-04-27 12:46 53.83141 -2.39148 26772 ft 470 kts 211°
2026-04-27 12:46 53.80124 -2.41333 27046 ft 472 kts 211°
2026-04-27 12:47 53.77133 -2.43497 27300 ft 475 kts 211°
2026-04-27 12:47 53.74080 -2.45703 27528 ft 478 kts 211°
2026-04-27 12:47 53.71012 -2.47917 27773 ft 480 kts 210°
2026-04-27 12:47 53.67936 -2.50132 28150 ft 480 kts 210°
2026-04-27 12:48 53.64855 -2.52347 28414 ft 482 kts 210°
2026-04-27 12:48 53.61744 -2.54575 28620 ft 487 kts 209°
2026-04-27 12:48 53.58572 -2.56663 28847 ft 491 kts 207°
2026-04-27 12:48 53.55357 -2.58641 29087 ft 494 kts 206°
2026-04-27 12:49 53.52113 -2.60611 29232 ft 497 kts 205°
2026-04-27 12:49 53.48850 -2.62622 29435 ft 500 kts 206°
2026-04-27 12:49 53.45586 -2.64663 29683 ft 501 kts 206°
2026-04-27 12:49 53.42307 -2.66727 29931 ft 503 kts 206°
2026-04-27 12:50 53.39066 -2.68764 30155 ft 505 kts 206°
2026-04-27 12:50 53.35757 -2.70839 30362 ft 508 kts 206°
2026-04-27 12:50 53.32436 -2.72917 30564 ft 510 kts 206°
2026-04-27 12:50 53.29113 -2.74993 30820 ft 510 kts 206°
2026-04-27 12:51 53.25788 -2.77064 31151 ft 509 kts 206°
2026-04-27 12:51 53.22470 -2.79129 31499 ft 507 kts 206°
2026-04-27 12:51 53.19170 -2.81183 31846 ft 504 kts 205°
2026-04-27 12:51 53.15885 -2.83225 32181 ft 503 kts 205°
2026-04-27 12:52 53.12595 -2.85266 32439 ft 503 kts 205°
2026-04-27 12:52 53.09292 -2.87231 32671 ft 506 kts 200°
2026-04-27 12:52 53.05851 -2.88558 32934 ft 511 kts 191°
2026-04-27 12:52 53.02291 -2.89027 33242 ft 512 kts 184°
2026-04-27 12:53 52.95227 -2.89347 33836 ft 509 kts 183°
2026-04-27 12:53 52.91703 -2.89583 34232 ft 506 kts 184°
2026-04-27 12:53 52.88192 -2.89973 34515 ft 503 kts 189°
2026-04-27 12:54 52.84726 -2.90765 34767 ft 501 kts 191°
2026-04-27 12:54 52.81289 -2.91642 35039 ft 498 kts 191°
2026-04-27 12:54 52.77862 -2.92514 35336 ft 496 kts 191°
2026-04-27 12:54 52.74432 -2.93348 35315 ft 500 kts 190°
2026-04-27 12:55 52.67573 -2.94633 35317 ft 499 kts 185°
2026-04-27 12:55 52.60679 -2.95137 35318 ft 493 kts 183°
2026-04-27 12:56 52.53827 -2.95566 35323 ft 491 kts 183°
2026-04-27 12:56 52.46996 -2.96082 35320 ft 490 kts 184°
2026-04-27 12:57 52.40192 -2.96642 35313 ft 489 kts 184°
2026-04-27 12:57 52.33436 -2.97204 35284 ft 488 kts 183°
2026-04-27 12:58 52.26646 -2.97760 35308 ft 487 kts 183°
2026-04-27 12:58 52.19906 -2.98312 35314 ft 487 kts 182°
2026-04-27 12:59 52.13137 -2.98863 35297 ft 487 kts 182°
2026-04-27 12:59 52.06367 -2.99412 35302 ft 486 kts 182°
2026-04-27 13:00 51.99587 -2.99961 35293 ft 486 kts 182°
2026-04-27 13:00 51.92846 -3.00507 35300 ft 484 kts 182°
2026-04-27 13:01 51.86157 -3.01171 35280 ft 483 kts 186°
2026-04-27 13:01 51.79505 -3.02541 35289 ft 481 kts 188°
2026-04-27 13:02 51.72870 -3.04020 35293 ft 479 kts 187°
2026-04-27 13:02 51.66300 -3.05425 35287 ft 477 kts 187°
2026-04-27 13:03 51.59723 -3.06792 35288 ft 475 kts 187°
2026-04-27 13:03 51.53169 -3.08144 35303 ft 474 kts 187°
2026-04-27 13:04 51.46641 -3.09493 35314 ft 472 kts 187°
2026-04-27 13:04 51.40138 -3.10834 35315 ft 471 kts 187°
2026-04-27 13:05 51.33666 -3.12159 35314 ft 470 kts 187°
2026-04-27 13:05 51.27173 -3.13481 35298 ft 470 kts 186°
2026-04-27 13:06 51.20686 -3.14801 35293 ft 470 kts 186°
2026-04-27 13:06 51.14176 -3.16125 35296 ft 471 kts 186°
2026-04-27 13:07 51.07668 -3.17444 35287 ft 472 kts 186°
2026-04-27 13:07 51.01178 -3.18756 35294 ft 473 kts 186°
2026-04-27 13:08 50.94641 -3.20075 35295 ft 474 kts 186°
2026-04-27 13:08 50.88083 -3.21394 35292 ft 474 kts 186°
2026-04-27 13:09 50.81570 -3.22702 35295 ft 474 kts 186°
2026-04-27 13:09 50.75019 -3.24012 35294 ft 474 kts 186°
2026-04-27 13:10 50.68471 -3.25324 35289 ft 473 kts 186°
2026-04-27 13:10 50.61949 -3.26633 35271 ft 471 kts 186°
2026-04-27 13:11 50.55489 -3.27928 35294 ft 469 kts 186°
2026-04-27 13:11 50.49006 -3.29224 35283 ft 467 kts 186°
2026-04-27 13:12 50.42571 -3.30507 35292 ft 466 kts 186°
2026-04-27 13:12 50.36200 -3.31985 35300 ft 464 kts 190°
2026-04-27 13:13 50.29850 -3.34138 35284 ft 463 kts 192°
2026-04-27 13:13 50.23607 -3.36323 35295 ft 462 kts 191°
2026-04-27 13:14 50.17317 -3.38471 35296 ft 461 kts 191°
2026-04-27 13:14 50.11050 -3.40576 35313 ft 461 kts 191°
2026-04-27 13:15 50.04770 -3.42675 35295 ft 460 kts 191°
2026-04-27 13:15 49.98523 -3.44759 35286 ft 459 kts 191°
2026-04-27 13:16 49.92314 -3.46826 35291 ft 458 kts 191°
2026-04-27 13:16 49.86094 -3.48893 35294 ft 456 kts 192°
2026-04-27 13:17 49.79895 -3.50949 35282 ft 455 kts 192°
2026-04-27 13:17 49.73717 -3.52995 35288 ft 453 kts 193°
2026-04-27 13:18 49.67651 -3.55471 35301 ft 452 kts 195°
2026-04-27 13:18 49.61620 -3.58163 35283 ft 450 kts 195°
2026-04-27 13:19 49.55602 -3.60836 35276 ft 450 kts 195°
2026-04-27 13:19 49.49559 -3.63469 35284 ft 458 kts 195°
2026-04-27 13:20 49.43374 -3.66143 35290 ft 459 kts 194°
2026-04-27 13:20 49.37329 -3.68746 35260 ft 448 kts 195°
2026-04-27 13:21 49.31304 -3.71332 35274 ft 446 kts 194°
2026-04-27 13:21 49.25360 -3.73879 35270 ft 445 kts 194°
2026-04-27 13:22 49.19387 -3.76432 35270 ft 445 kts 195°
2026-04-27 13:22 49.13424 -3.78973 35267 ft 445 kts 195°
2026-04-27 13:23 49.07458 -3.81510 35257 ft 445 kts 195°
2026-04-27 13:23 49.01501 -3.84037 35264 ft 445 kts 195°
2026-04-27 13:24 48.95576 -3.86544 35263 ft 444 kts 195°
2026-04-27 13:24 48.89610 -3.89062 35247 ft 444 kts 195°
2026-04-27 13:25 48.83670 -3.91563 35252 ft 443 kts 195°
2026-04-27 13:25 48.77726 -3.94060 35232 ft 443 kts 195°
2026-04-27 13:26 48.71771 -3.96554 35244 ft 443 kts 195°
2026-04-27 13:26 48.65846 -3.99031 35249 ft 445 kts 195°
2026-04-27 13:27 48.59848 -4.01533 35243 ft 447 kts 194°
2026-04-27 13:27 48.53840 -4.04029 35241 ft 448 kts 195°
2026-04-27 13:28 48.47893 -4.06496 35219 ft 442 kts 195°
2026-04-27 13:28 48.41988 -4.08941 35217 ft 438 kts 195°
2026-04-27 13:29 48.36120 -4.11364 35240 ft 438 kts 195°
2026-04-27 13:29 48.31213 -4.13386 35221 ft 442 kts 195°
2026-04-27 13:30 48.24313 -4.16221 35205 ft 442 kts 195°
2026-04-27 13:30 48.19326 -4.18266 35213 ft 442 kts 195°
2026-04-27 13:31 48.13418 -4.20683 35186 ft 442 kts 196°
2026-04-27 13:31 48.07471 -4.23109 35182 ft 441 kts 196°
2026-04-27 13:32 48.01581 -4.25508 35191 ft 440 kts 195°
2026-04-27 13:32 47.95664 -4.27911 35194 ft 440 kts 195°
2026-04-27 13:33 47.89783 -4.30294 35194 ft 440 kts 196°
2026-04-27 13:33 47.83877 -4.32682 35190 ft 439 kts 196°
2026-04-27 13:34 47.77975 -4.35062 35206 ft 439 kts 196°
2026-04-27 13:34 47.72077 -4.37435 35207 ft 438 kts 196°
2026-04-27 13:35 47.66188 -4.39799 35208 ft 438 kts 196°
2026-04-27 13:35 47.60299 -4.42157 35205 ft 437 kts 196°
2026-04-27 13:36 47.54424 -4.44505 35209 ft 437 kts 196°
2026-04-27 13:36 47.48573 -4.46837 35208 ft 436 kts 197°
2026-04-27 13:37 47.42726 -4.49162 35202 ft 435 kts 197°
2026-04-27 13:37 47.36888 -4.51478 35206 ft 434 kts 197°
2026-04-27 13:38 47.31056 -4.53787 35204 ft 433 kts 197°
2026-04-27 13:38 47.25269 -4.56073 35208 ft 432 kts 197°
2026-04-27 13:39 47.19457 -4.58363 35202 ft 431 kts 197°
2026-04-27 13:39 47.13658 -4.60643 35203 ft 430 kts 197°
2026-04-27 13:40 47.07904 -4.62901 35190 ft 430 kts 197°
2026-04-27 13:40 47.02137 -4.65158 35200 ft 429 kts 197°
2026-04-27 13:41 46.96368 -4.67411 35204 ft 428 kts 197°
2026-04-27 13:41 46.90618 -4.69652 35204 ft 427 kts 197°
2026-04-27 13:42 46.84861 -4.71891 35196 ft 427 kts 197°
2026-04-27 13:42 46.79149 -4.74107 35202 ft 426 kts 197°
2026-04-27 13:43 46.73403 -4.76331 35204 ft 426 kts 197°
2026-04-27 13:43 46.67665 -4.78548 35203 ft 426 kts 197°
2026-04-27 13:44 46.61920 -4.80762 35199 ft 426 kts 197°
2026-04-27 13:44 46.56218 -4.82955 35198 ft 426 kts 197°
2026-04-27 13:45 46.50472 -4.85160 35195 ft 427 kts 197°
2026-04-27 13:45 46.44723 -4.87361 35193 ft 427 kts 197°
2026-04-27 13:46 46.38955 -4.89565 35202 ft 428 kts 197°
2026-04-27 13:46 46.33178 -4.91767 35199 ft 429 kts 197°
2026-04-27 13:47 46.27425 -4.93955 35198 ft 429 kts 197°
2026-04-27 13:47 46.21652 -4.96146 35192 ft 429 kts 197°
2026-04-27 13:48 46.15914 -4.98319 35193 ft 428 kts 197°
2026-04-27 13:48 46.10158 -5.00494 35197 ft 427 kts 197°
2026-04-27 13:49 46.04413 -5.02660 35192 ft 425 kts 198°
2026-04-27 13:49 45.98722 -5.04802 35196 ft 423 kts 198°
2026-04-27 13:50 45.93030 -5.06939 35189 ft 422 kts 198°
2026-04-27 13:50 45.87350 -5.09068 35189 ft 421 kts 198°
2026-04-27 13:51 45.81688 -5.11185 35181 ft 419 kts 198°
2026-04-27 13:51 45.76038 -5.13293 35186 ft 419 kts 198°
2026-04-27 13:52 45.70428 -5.15383 35189 ft 419 kts 198°
2026-04-27 13:52 45.64769 -5.17486 35180 ft 420 kts 198°
2026-04-27 13:53 45.56267 -5.20637 35187 ft 421 kts 198°
2026-04-27 13:54 45.50597 -5.22733 35189 ft 421 kts 198°
2026-04-27 13:54 45.44913 -5.24830 35171 ft 422 kts 198°
2026-04-27 13:55 45.39261 -5.26910 35182 ft 421 kts 198°
2026-04-27 13:55 45.33575 -5.28999 35181 ft 421 kts 198°
2026-04-27 13:56 45.27933 -5.31067 35179 ft 420 kts 198°
2026-04-27 13:56 45.22270 -5.33139 35169 ft 419 kts 198°
2026-04-27 13:57 45.16617 -5.35203 35172 ft 418 kts 198°
2026-04-27 13:57 45.10984 -5.37255 35177 ft 417 kts 198°
2026-04-27 13:58 45.05388 -5.39291 35165 ft 417 kts 198°
2026-04-27 13:58 44.99766 -5.41331 35171 ft 416 kts 198°
2026-04-27 13:59 44.94142 -5.43368 35175 ft 416 kts 198°
2026-04-27 13:59 44.88552 -5.45390 35172 ft 417 kts 198°
2026-04-27 14:00 44.82917 -5.47422 35157 ft 416 kts 198°
2026-04-27 14:00 44.77301 -5.49445 35164 ft 416 kts 198°
2026-04-27 14:01 44.71724 -5.51451 35170 ft 416 kts 198°
2026-04-27 14:01 44.66117 -5.53464 35174 ft 416 kts 198°
2026-04-27 14:02 44.60516 -5.55555 35166 ft 414 kts 203°
2026-04-27 14:02 44.55251 -5.58718 35167 ft 411 kts 207°
2026-04-27 14:03 44.50032 -5.62011 35168 ft 411 kts 207°
2026-04-27 14:03 44.44832 -5.65257 35153 ft 411 kts 207°
2026-04-27 14:04 44.39590 -5.68496 35159 ft 411 kts 207°
2026-04-27 14:04 44.34355 -5.71713 35175 ft 411 kts 207°
2026-04-27 14:05 44.29103 -5.74934 35162 ft 412 kts 207°
2026-04-27 14:05 44.23853 -5.78145 35167 ft 411 kts 207°
2026-04-27 14:06 44.18639 -5.81329 35172 ft 411 kts 206°
2026-04-27 14:06 44.13387 -5.84531 35150 ft 412 kts 206°
2026-04-27 14:07 44.08132 -5.87728 35166 ft 412 kts 206°
2026-04-27 14:07 44.02870 -5.90922 35166 ft 412 kts 206°
2026-04-27 14:08 43.97648 -5.94086 35160 ft 412 kts 206°
2026-04-27 14:08 43.92384 -5.97270 35161 ft 412 kts 206°
2026-04-27 14:09 43.87130 -6.00442 35129 ft 412 kts 206°
2026-04-27 14:09 43.81909 -6.03588 35145 ft 411 kts 206°
2026-04-27 14:10 43.76654 -6.06747 35153 ft 411 kts 206°
2026-04-27 14:10 43.71399 -6.09901 35158 ft 412 kts 206°
2026-04-27 14:11 43.66167 -6.13036 35128 ft 412 kts 206°
2026-04-27 14:11 43.60904 -6.16183 35143 ft 412 kts 206°
2026-04-27 14:12 43.55639 -6.19324 35157 ft 412 kts 206°
2026-04-27 14:12 43.50369 -6.22463 35156 ft 412 kts 206°
2026-04-27 14:13 43.45099 -6.25596 35128 ft 413 kts 205°
2026-04-27 14:13 43.39825 -6.28726 35129 ft 413 kts 205°
2026-04-27 14:14 43.34538 -6.31856 35135 ft 414 kts 205°
2026-04-27 14:14 43.29231 -6.34994 35119 ft 415 kts 205°
2026-04-27 14:15 43.23956 -6.38106 35093 ft 416 kts 205°
2026-04-27 14:15 43.18632 -6.41259 35098 ft 417 kts 205°
2026-04-27 14:16 43.13273 -6.44395 35100 ft 419 kts 205°
2026-04-27 14:16 43.07945 -6.47513 35094 ft 419 kts 205°
2026-04-27 14:17 43.02571 -6.50660 35074 ft 420 kts 205°
2026-04-27 14:17 42.98094 -6.53277 35095 ft 421 kts 205°
2026-04-27 14:18 42.92695 -6.56428 35085 ft 422 kts 205°
2026-04-27 14:18 42.86405 -6.60091 35078 ft 423 kts 205°
2026-04-27 14:19 42.81864 -6.62729 35064 ft 424 kts 205°
2026-04-27 14:19 42.76427 -6.65883 35067 ft 425 kts 205°
2026-04-27 14:20 42.71266 -6.68872 35072 ft 425 kts 205°
2026-04-27 14:20 42.65819 -6.72019 35072 ft 425 kts 205°
2026-04-27 14:21 42.60369 -6.75163 35067 ft 425 kts 205°
2026-04-27 14:21 42.54923 -6.78298 35066 ft 425 kts 205°
2026-04-27 14:22 42.49481 -6.81425 35082 ft 424 kts 205°
2026-04-27 14:22 42.44071 -6.84529 35081 ft 424 kts 205°
2026-04-27 14:23 42.38629 -6.87644 35048 ft 423 kts 205°
2026-04-27 14:23 42.33212 -6.90739 35065 ft 422 kts 205°
2026-04-27 14:24 42.27820 -6.93815 35067 ft 423 kts 205°
2026-04-27 14:24 42.22385 -6.96909 35060 ft 423 kts 205°
2026-04-27 14:25 42.16951 -6.99997 35065 ft 423 kts 205°
2026-04-27 14:25 42.11541 -7.03066 35054 ft 424 kts 205°
2026-04-27 14:26 42.06093 -7.06150 35054 ft 425 kts 205°
2026-04-27 14:26 42.00639 -7.09233 35049 ft 425 kts 205°
2026-04-27 14:27 41.95174 -7.12316 35037 ft 425 kts 205°
2026-04-27 14:27 41.89757 -7.15366 35034 ft 424 kts 205°
2026-04-27 14:28 41.84302 -7.18434 35036 ft 424 kts 205°
2026-04-27 14:28 41.78842 -7.21499 35024 ft 424 kts 205°
2026-04-27 14:29 41.73466 -7.24721 35021 ft 421 kts 211°
2026-04-27 14:29 41.68421 -7.28629 35013 ft 421 kts 212°
2026-04-27 14:30 41.63382 -7.32629 35025 ft 420 kts 212°
2026-04-27 14:30 41.58358 -7.36570 35014 ft 421 kts 212°
2026-04-27 14:31 41.53296 -7.40501 35001 ft 420 kts 211°
2026-04-27 14:31 41.48231 -7.44414 35013 ft 420 kts 211°
2026-04-27 14:32 41.43196 -7.48295 35010 ft 421 kts 211°
2026-04-27 14:32 41.38109 -7.52208 35005 ft 421 kts 211°
2026-04-27 14:33 41.33036 -7.56105 35007 ft 421 kts 211°
2026-04-27 14:33 41.27953 -7.60002 35013 ft 421 kts 211°
2026-04-27 14:34 41.22890 -7.63878 35009 ft 422 kts 211°
2026-04-27 14:34 41.17785 -7.67779 35001 ft 423 kts 211°
2026-04-27 14:35 41.12677 -7.71673 34993 ft 424 kts 211°
2026-04-27 14:35 41.07589 -7.75546 34995 ft 424 kts 211°
2026-04-27 14:36 41.02462 -7.79442 34998 ft 424 kts 211°
2026-04-27 14:36 40.97348 -7.83320 34992 ft 423 kts 211°
2026-04-27 14:37 40.92237 -7.87190 34995 ft 423 kts 211°
2026-04-27 14:37 40.87154 -7.91032 34988 ft 423 kts 211°
2026-04-27 14:38 40.82025 -7.94901 34999 ft 423 kts 211°
2026-04-27 14:38 40.76902 -7.98759 34993 ft 423 kts 210°
2026-04-27 14:39 40.71818 -8.02581 34975 ft 423 kts 210°
2026-04-27 14:39 40.66699 -8.06422 34985 ft 423 kts 210°
2026-04-27 14:40 40.61586 -8.10252 34969 ft 423 kts 210°
2026-04-27 14:40 40.56470 -8.14078 34974 ft 422 kts 210°
2026-04-27 14:41 40.51349 -8.17900 34975 ft 423 kts 210°
2026-04-27 14:41 40.46231 -8.21713 34978 ft 422 kts 210°
2026-04-27 14:42 40.41144 -8.25497 34973 ft 423 kts 210°
2026-04-27 14:42 40.36016 -8.29305 34972 ft 423 kts 210°
2026-04-27 14:43 40.30885 -8.33108 34973 ft 423 kts 210°
2026-04-27 14:43 40.25785 -8.36882 34975 ft 423 kts 210°
2026-04-27 14:44 40.20641 -8.40682 34976 ft 423 kts 210°
2026-04-27 14:44 40.15543 -8.44442 34962 ft 423 kts 210°
2026-04-27 14:45 40.10406 -8.48226 34974 ft 423 kts 210°
2026-04-27 14:45 40.05274 -8.51998 34971 ft 423 kts 210°
2026-04-27 14:46 40.00120 -8.55712 34980 ft 423 kts 208°
2026-04-27 14:46 39.94916 -8.59242 34971 ft 423 kts 207°
2026-04-27 14:47 39.89679 -8.62769 34981 ft 423 kts 207°
2026-04-27 14:47 39.84448 -8.66310 34991 ft 423 kts 207°
2026-04-27 14:48 39.79259 -8.69833 34990 ft 423 kts 207°
2026-04-27 14:48 39.71425 -8.75147 34990 ft 423 kts 207°
2026-04-27 14:49 39.66190 -8.78691 34983 ft 423 kts 207°
2026-04-27 14:49 39.60971 -8.82217 34984 ft 423 kts 207°
2026-04-27 14:50 39.55773 -8.85722 34975 ft 422 kts 207°
2026-04-27 14:50 39.50549 -8.89240 34978 ft 422 kts 207°
2026-04-27 14:51 39.45327 -8.92749 34971 ft 423 kts 207°
2026-04-27 14:51 39.40987 -8.95662 34980 ft 423 kts 207°
2026-04-27 14:52 39.34902 -8.99739 34981 ft 423 kts 207°
2026-04-27 14:52 39.29670 -9.03238 34975 ft 423 kts 207°
2026-04-27 14:53 39.24463 -9.06715 34971 ft 423 kts 207°
2026-04-27 14:53 39.19225 -9.10206 34975 ft 424 kts 207°
2026-04-27 14:54 39.13977 -9.13698 34979 ft 424 kts 207°
2026-04-27 14:54 39.08733 -9.17182 34978 ft 424 kts 207°
2026-04-27 14:55 39.03522 -9.20637 34974 ft 424 kts 206°
2026-04-27 14:55 38.98259 -9.24122 34994 ft 425 kts 206°
2026-04-27 14:56 38.92992 -9.27604 34993 ft 425 kts 206°
2026-04-27 14:56 38.87759 -9.31056 35002 ft 425 kts 206°
2026-04-27 14:57 38.82478 -9.34536 34989 ft 426 kts 206°
2026-04-27 14:57 38.77201 -9.38007 34984 ft 426 kts 206°
2026-04-27 14:58 38.71927 -9.41471 34985 ft 426 kts 206°
2026-04-27 14:58 38.66688 -9.44906 34984 ft 425 kts 206°
2026-04-27 14:59 38.61411 -9.48362 34995 ft 425 kts 206°
2026-04-27 14:59 38.56140 -9.51808 34982 ft 425 kts 207°
2026-04-27 15:00 38.51018 -9.55592 34992 ft 425 kts 211°
2026-04-27 15:00 38.46005 -9.59516 34986 ft 425 kts 210°
2026-04-27 15:01 38.40948 -9.63465 34991 ft 426 kts 210°
2026-04-27 15:01 38.35860 -9.67403 34987 ft 428 kts 210°
2026-04-27 15:02 38.30785 -9.71312 35001 ft 429 kts 210°
2026-04-27 15:02 38.25656 -9.75250 34994 ft 430 kts 210°
2026-04-27 15:03 38.20522 -9.79186 34987 ft 431 kts 210°
2026-04-27 15:03 38.15369 -9.83131 34994 ft 432 kts 210°
2026-04-27 15:04 38.10202 -9.87080 34997 ft 434 kts 210°
2026-04-27 15:04 38.05028 -9.91028 34996 ft 434 kts 210°
2026-04-27 15:05 37.99841 -9.94980 34987 ft 434 kts 210°
2026-04-27 15:05 37.94688 -9.98898 34988 ft 434 kts 210°
2026-04-27 15:06 37.90372 -10.02175 34994 ft 434 kts 210°
2026-04-27 15:06 37.85194 -10.06102 34991 ft 433 kts 210°
2026-04-27 15:07 37.80017 -10.10020 34998 ft 432 kts 210°
2026-04-27 15:07 37.74882 -10.13901 34995 ft 432 kts 210°
2026-04-27 15:08 37.69729 -10.17788 34992 ft 431 kts 210°
2026-04-27 15:08 37.64579 -10.21667 34998 ft 430 kts 210°
2026-04-27 15:09 37.59442 -10.25530 34988 ft 429 kts 210°
2026-04-27 15:09 37.54340 -10.29360 34991 ft 429 kts 210°
2026-04-27 15:10 37.49179 -10.33228 35145 ft 434 kts 210°
2026-04-27 15:10 37.46585 -10.35170 35385 ft 433 kts 210°
2026-04-27 15:10 37.43993 -10.37109 35658 ft 431 kts 210°
2026-04-27 15:11 37.41416 -10.39036 35927 ft 430 kts 210°
2026-04-27 15:11 37.38878 -10.40932 36130 ft 430 kts 210°
2026-04-27 15:11 37.36294 -10.42860 36287 ft 431 kts 210°
2026-04-27 15:11 37.33708 -10.44787 36444 ft 432 kts 210°
2026-04-27 15:12 37.31116 -10.46719 36663 ft 431 kts 210°
2026-04-27 15:12 37.28542 -10.48635 36914 ft 430 kts 210°
2026-04-27 15:12 37.23378 -10.52474 36994 ft 433 kts 210°
2026-04-27 15:13 37.18232 -10.56294 36985 ft 430 kts 210°
2026-04-27 15:13 37.13083 -10.60111 36997 ft 427 kts 210°
2026-04-27 15:14 37.07975 -10.63891 36997 ft 425 kts 210°
2026-04-27 15:14 37.02887 -10.67649 36995 ft 424 kts 210°
2026-04-27 15:15 36.97833 -10.71378 36990 ft 424 kts 210°
2026-04-27 15:15 36.92746 -10.75123 37003 ft 425 kts 210°
2026-04-27 15:16 36.87627 -10.78888 37003 ft 427 kts 210°
2026-04-27 15:16 36.82478 -10.82667 37002 ft 429 kts 210°
2026-04-27 15:17 36.77342 -10.86433 37002 ft 432 kts 210°
2026-04-27 15:17 36.72134 -10.90244 37000 ft 434 kts 210°
2026-04-27 15:18 36.66953 -10.94030 36995 ft 435 kts 210°
2026-04-27 15:18 36.61721 -10.97847 36996 ft 435 kts 210°
2026-04-27 15:19 36.56499 -11.01651 37002 ft 435 kts 210°
2026-04-27 15:19 36.51279 -11.05447 36992 ft 434 kts 210°
2026-04-27 15:20 36.46073 -11.09227 36991 ft 432 kts 210°
2026-04-27 15:20 36.40911 -11.12969 36994 ft 431 kts 210°
2026-04-27 15:21 36.35735 -11.16716 37001 ft 429 kts 210°
2026-04-27 15:21 36.30567 -11.20452 36991 ft 429 kts 210°
2026-04-27 15:22 36.25420 -11.24166 36996 ft 428 kts 210°
2026-04-27 15:22 36.20270 -11.27877 37000 ft 427 kts 210°
2026-04-27 15:23 36.15156 -11.31557 37003 ft 428 kts 210°
2026-04-27 15:23 36.10009 -11.35255 36986 ft 428 kts 210°
2026-04-27 15:24 36.04850 -11.38958 36992 ft 429 kts 210°
2026-04-27 15:24 35.99675 -11.42666 37001 ft 429 kts 210°
2026-04-27 15:25 35.94595 -11.46493 36992 ft 430 kts 214°
2026-04-27 15:25 35.89705 -11.50792 36983 ft 431 kts 216°
2026-04-27 15:26 35.84843 -11.55150 36991 ft 432 kts 216°
2026-04-27 15:26 35.79980 -11.59461 36992 ft 433 kts 215°
2026-04-27 15:27 35.75071 -11.63770 36985 ft 433 kts 215°
2026-04-27 15:27 35.70158 -11.68067 36983 ft 433 kts 215°
2026-04-27 15:28 35.65244 -11.72355 36988 ft 432 kts 215°
2026-04-27 15:28 35.60362 -11.76610 36992 ft 432 kts 215°
2026-04-27 15:29 35.55448 -11.80887 36983 ft 431 kts 215°
2026-04-27 15:29 35.50555 -11.85139 36987 ft 431 kts 215°
2026-04-27 15:30 35.45653 -11.89393 36992 ft 430 kts 215°
2026-04-27 15:30 35.40789 -11.93606 36995 ft 430 kts 215°
2026-04-27 15:31 35.35890 -11.97845 36987 ft 430 kts 215°
2026-04-27 15:31 35.30994 -12.02073 36994 ft 430 kts 215°
2026-04-27 15:32 35.26092 -12.06301 37007 ft 431 kts 215°
2026-04-27 15:32 35.21175 -12.10535 36994 ft 432 kts 215°
2026-04-27 15:33 35.16256 -12.14765 36989 ft 432 kts 215°
2026-04-27 15:33 35.11363 -12.18966 36989 ft 433 kts 215°
2026-04-27 15:34 35.06432 -12.23193 36999 ft 433 kts 215°
2026-04-27 15:34 35.01488 -12.27425 36990 ft 434 kts 215°
2026-04-27 15:35 34.96536 -12.31658 36987 ft 434 kts 215°
2026-04-27 15:35 34.91622 -12.35852 36996 ft 434 kts 215°
2026-04-27 15:36 34.86675 -12.40068 36997 ft 433 kts 215°
2026-04-27 15:36 34.81725 -12.44280 36994 ft 433 kts 215°
2026-04-27 15:37 34.76777 -12.48484 36990 ft 434 kts 215°
2026-04-27 15:37 34.71814 -12.52694 37002 ft 434 kts 215°
2026-04-27 15:38 34.66883 -12.56870 37000 ft 435 kts 215°
2026-04-27 15:38 34.61900 -12.61086 36993 ft 436 kts 215°
2026-04-27 15:39 34.56897 -12.65312 36991 ft 437 kts 215°
2026-04-27 15:39 34.51909 -12.69519 36999 ft 437 kts 215°
2026-04-27 15:40 34.46942 -12.73702 37003 ft 436 kts 215°
2026-04-27 15:40 34.41944 -12.77905 37000 ft 436 kts 215°
2026-04-27 15:41 34.36954 -12.82098 36995 ft 436 kts 215°
2026-04-27 15:41 34.31990 -12.86262 36996 ft 436 kts 216°
2026-04-27 15:42 34.26992 -12.90448 37001 ft 436 kts 216°
2026-04-27 15:42 34.21988 -12.94646 37003 ft 437 kts 215°
2026-04-27 15:43 34.16987 -12.98861 36998 ft 438 kts 215°
2026-04-27 15:43 34.12020 -13.03043 37005 ft 438 kts 216°
2026-04-27 15:44 34.07009 -13.07255 37013 ft 438 kts 216°
2026-04-27 15:44 34.01990 -13.11468 37000 ft 439 kts 216°
2026-04-27 15:45 33.96977 -13.15671 37000 ft 439 kts 216°
2026-04-27 15:45 33.91998 -13.19838 37007 ft 438 kts 216°
2026-04-27 15:46 33.86988 -13.24024 37016 ft 438 kts 215°
2026-04-27 15:46 33.81965 -13.28212 37008 ft 439 kts 216°
2026-04-27 15:47 33.76928 -13.32406 37003 ft 439 kts 216°
2026-04-27 15:47 33.71905 -13.36585 37007 ft 439 kts 215°
2026-04-27 15:48 33.66902 -13.40745 37017 ft 439 kts 216°
2026-04-27 15:49 33.59347 -13.47005 37020 ft 439 kts 215°
2026-04-27 15:49 33.54302 -13.51180 37019 ft 440 kts 216°
2026-04-27 15:50 33.49290 -13.55323 37022 ft 440 kts 217°
2026-04-27 15:50 33.44238 -13.59494 37010 ft 441 kts 216°
2026-04-27 15:51 33.39170 -13.63670 37010 ft 442 kts 216°
2026-04-27 15:51 33.34127 -13.67822 37029 ft 442 kts 217°
2026-04-27 15:52 33.29046 -13.71997 37021 ft 443 kts 216°
2026-04-27 15:52 33.23956 -13.76175 37027 ft 444 kts 217°
2026-04-27 15:53 33.18882 -13.80334 37017 ft 444 kts 214°
2026-04-27 15:53 33.13783 -13.84506 37035 ft 444 kts 216°
2026-04-27 15:54 33.09540 -13.87950 37027 ft 444 kts 216°
2026-04-27 15:54 33.04429 -13.92088 37031 ft 444 kts 215°
2026-04-27 15:55 32.99312 -13.96232 37029 ft 444 kts 216°
2026-04-27 15:55 32.94197 -14.00373 37039 ft 444 kts 215°
2026-04-27 15:56 32.89105 -14.04487 37027 ft 445 kts 218°
2026-04-27 15:56 32.83970 -14.08632 37039 ft 445 kts 217°
2026-04-27 15:57 32.78879 -14.12735 37031 ft 445 kts 216°
2026-04-27 15:57 32.73750 -14.16861 37036 ft 445 kts 218°
2026-04-27 15:58 32.68620 -14.20987 37028 ft 445 kts 216°
2026-04-27 15:58 32.63490 -14.25108 37039 ft 445 kts 215°
2026-04-27 15:59 32.58370 -14.29207 37034 ft 445 kts 216°
2026-04-27 15:59 32.53232 -14.33321 37037 ft 445 kts 215°
2026-04-27 16:00 32.48087 -14.37433 37047 ft 446 kts 216°
2026-04-27 16:00 32.42965 -14.41520 37044 ft 446 kts 217°
2026-04-27 16:01 32.37814 -14.45624 37045 ft 446 kts 217°
2026-04-27 16:01 32.32648 -14.49735 37037 ft 447 kts 215°
2026-04-27 16:02 32.27484 -14.53836 37054 ft 447 kts 215°
2026-04-27 16:02 32.22356 -14.57907 37037 ft 447 kts 216°
2026-04-27 16:03 32.17191 -14.62003 37044 ft 447 kts 216°
2026-04-27 16:03 32.12019 -14.66095 37046 ft 447 kts 216°
2026-04-27 16:04 32.06844 -14.70185 37047 ft 447 kts 216°
2026-04-27 16:04 32.01688 -14.74256 37037 ft 448 kts 216°
2026-04-27 16:05 31.96512 -14.78334 37045 ft 448 kts 216°
2026-04-27 16:05 31.91329 -14.82412 37049 ft 448 kts 216°
2026-04-27 16:06 31.86139 -14.86491 37049 ft 448 kts 216°
2026-04-27 16:06 31.80948 -14.90566 37048 ft 448 kts 216°
2026-04-27 16:07 31.75802 -14.94600 37040 ft 448 kts 217°
2026-04-27 16:07 31.70610 -14.98664 37042 ft 447 kts 217°
2026-04-27 16:08 31.65424 -15.02719 37051 ft 447 kts 217°
2026-04-27 16:08 31.60229 -15.06774 37053 ft 448 kts 217°
2026-04-27 16:09 31.55064 -15.10802 37054 ft 448 kts 217°
2026-04-27 16:09 31.47261 -15.16875 37052 ft 449 kts 217°
2026-04-27 16:10 31.36838 -15.24973 37056 ft 449 kts 217°
2026-04-27 16:11 31.29021 -15.30982 37054 ft 451 kts 215°
2026-04-27 16:12 31.20738 -15.36298 37059 ft 453 kts 211°
2026-04-27 16:13 31.12417 -15.41474 37050 ft 453 kts 212°
2026-04-27 16:13 31.04094 -15.46748 37059 ft 453 kts 212°
2026-04-27 16:14 30.93037 -15.53766 37059 ft 453 kts 212°
2026-04-27 16:15 30.81967 -15.60771 37058 ft 453 kts 213°
2026-04-27 16:16 30.70866 -15.67776 37056 ft 453 kts 213°
2026-04-27 16:17 30.59810 -15.74734 37063 ft 453 kts 213°
2026-04-27 16:18 30.48706 -15.81704 37062 ft 454 kts 213°
2026-04-27 16:19 30.43147 -15.85187 37065 ft 454 kts 213°
2026-04-27 16:20 30.32024 -15.92142 37069 ft 454 kts 213°
2026-04-27 16:21 30.23704 -15.97332 37061 ft 454 kts 213°
2026-04-27 16:22 30.12583 -16.04254 37062 ft 453 kts 214°
2026-04-27 16:22 30.04244 -16.09433 37071 ft 453 kts 214°
2026-04-27 16:23 29.95946 -16.14577 37070 ft 453 kts 214°
2026-04-27 16:24 29.90377 -16.18024 37066 ft 453 kts 214°
2026-04-27 16:25 29.79256 -16.24895 37075 ft 453 kts 214°
2026-04-27 16:26 29.68124 -16.31757 37074 ft 453 kts 214°
2026-04-27 16:26 29.62583 -16.35167 36826 ft 457 kts 214°
2026-04-27 16:27 29.57180 -16.38955 35843 ft 446 kts 226°
2026-04-27 16:27 29.50143 -16.45674 34639 ft 435 kts 227°
2026-04-27 16:28 29.45505 -16.50108 33780 ft 431 kts 226°
2026-04-27 16:28 29.40909 -16.54456 32929 ft 425 kts 226°
2026-04-27 16:29 29.34158 -16.60804 31751 ft 415 kts 225°
2026-04-27 16:30 29.29706 -16.64984 31003 ft 410 kts 224°
2026-04-27 16:30 29.25320 -16.69098 30264 ft 405 kts 224°
2026-04-27 16:31 29.18874 -16.75133 29024 ft 396 kts 225°
2026-04-27 16:31 29.14641 -16.79091 28249 ft 389 kts 225°
2026-04-27 16:32 29.10469 -16.82989 27492 ft 384 kts 224°
2026-04-27 16:32 29.08403 -16.84918 27121 ft 381 kts 224°
2026-04-27 16:33 29.04320 -16.88727 26382 ft 376 kts 224°
2026-04-27 16:33 29.02321 -16.90591 26022 ft 374 kts 224°
2026-04-27 16:33 29.00308 -16.92466 25663 ft 372 kts 224°
2026-04-27 16:33 28.98310 -16.94327 25310 ft 370 kts 223°
2026-04-27 16:34 28.96312 -16.96187 24954 ft 368 kts 223°
2026-04-27 16:34 28.94323 -16.98037 24597 ft 367 kts 223°
2026-04-27 16:34 28.92366 -16.99857 24245 ft 366 kts 222°
2026-04-27 16:34 28.90394 -17.01690 23878 ft 365 kts 222°
2026-04-27 16:35 28.88422 -17.03521 23503 ft 364 kts 221°
2026-04-27 16:35 28.86458 -17.05344 23070 ft 362 kts 221°
2026-04-27 16:35 28.82568 -17.08951 22348 ft 358 kts 221°
2026-04-27 16:36 28.80641 -17.10738 21986 ft 356 kts 221°
2026-04-27 16:36 28.78725 -17.12512 21639 ft 353 kts 221°
2026-04-27 16:36 28.76820 -17.14276 21292 ft 352 kts 221°
2026-04-27 16:36 28.74949 -17.16008 20953 ft 350 kts 221°
2026-04-27 16:37 28.73041 -17.17774 20603 ft 348 kts 221°
2026-04-27 16:37 28.71182 -17.19493 20271 ft 347 kts 221°
2026-04-27 16:37 28.69308 -17.21225 19922 ft 346 kts 221°
2026-04-27 16:37 28.67440 -17.22951 19583 ft 345 kts 221°
2026-04-27 16:38 28.65582 -17.24667 19245 ft 344 kts 221°
2026-04-27 16:38 28.63723 -17.26383 18891 ft 344 kts 221°
2026-04-27 16:38 28.61865 -17.28098 18552 ft 343 kts 221°
2026-04-27 16:38 28.60009 -17.29809 18218 ft 341 kts 221°
2026-04-27 16:39 28.58170 -17.31505 17865 ft 340 kts 221°
2026-04-27 16:39 28.56336 -17.33195 17528 ft 338 kts 221°
2026-04-27 16:39 28.54512 -17.34876 17195 ft 336 kts 221°
2026-04-27 16:39 28.52723 -17.36524 16871 ft 334 kts 221°
2026-04-27 16:40 28.50915 -17.38186 16546 ft 332 kts 221°
2026-04-27 16:40 28.49124 -17.39832 16216 ft 331 kts 221°
2026-04-27 16:40 28.47260 -17.41353 15877 ft 331 kts 206°
2026-04-27 16:40 28.45037 -17.41976 15562 ft 331 kts 180°
2026-04-27 16:41 28.42791 -17.41530 15259 ft 329 kts 156°
2026-04-27 16:41 28.41470 -17.40703 15037 ft 326 kts 141°
2026-04-27 16:41 28.39911 -17.38878 14725 ft 322 kts 122°
2026-04-27 16:41 28.38760 -17.36704 14400 ft 321 kts 117°
2026-04-27 16:42 28.37657 -17.34496 14074 ft 321 kts 118°
2026-04-27 16:42 28.36546 -17.32300 13744 ft 320 kts 119°
2026-04-27 16:42 28.35432 -17.30132 13554 ft 314 kts 118°
2026-04-27 16:42 28.34337 -17.28017 13298 ft 310 kts 118°
2026-04-27 16:43 28.33239 -17.25900 12972 ft 310 kts 118°
2026-04-27 16:43 28.32147 -17.23798 12661 ft 308 kts 119°
2026-04-27 16:43 28.31058 -17.21703 12377 ft 307 kts 118°
2026-04-27 16:43 28.29977 -17.19624 12082 ft 305 kts 118°
2026-04-27 16:44 28.28901 -17.17555 11781 ft 303 kts 118°
2026-04-27 16:44 28.27843 -17.15523 11485 ft 302 kts 118°
2026-04-27 16:44 28.26777 -17.13475 11191 ft 301 kts 118°
2026-04-27 16:44 28.25673 -17.11456 10875 ft 303 kts 121°
2026-04-27 16:45 28.24470 -17.09483 10580 ft 305 kts 122°
2026-04-27 16:45 28.23245 -17.07521 10260 ft 304 kts 122°
2026-04-27 16:45 28.22025 -17.05560 10002 ft 302 kts 123°
2026-04-27 16:45 28.20849 -17.03658 9778 ft 292 kts 123°
2026-04-27 16:46 28.19686 -17.01763 9354 ft 290 kts 123°
2026-04-27 16:46 28.18544 -16.99902 8992 ft 284 kts 123°
2026-04-27 16:46 28.17422 -16.98089 8683 ft 276 kts 125°
2026-04-27 16:46 28.15979 -16.96732 8357 ft 274 kts 153°
2026-04-27 16:47 28.14198 -16.95886 8102 ft 273 kts 157°
2026-04-27 16:47 28.12460 -16.95127 7803 ft 269 kts 158°
2026-04-27 16:47 28.10729 -16.94376 7517 ft 263 kts 158°
2026-04-27 16:47 28.09033 -16.93635 7246 ft 261 kts 158°
2026-04-27 16:48 28.07342 -16.92888 6986 ft 261 kts 157°
2026-04-27 16:48 28.05658 -16.92141 6720 ft 260 kts 158°
2026-04-27 16:48 28.03970 -16.91390 6436 ft 261 kts 157°
2026-04-27 16:49 28.00590 -16.89874 5674 ft 259 kts 157°
2026-04-27 16:49 27.98935 -16.89090 5298 ft 256 kts 156°
2026-04-27 16:49 27.97302 -16.88309 4979 ft 252 kts 156°
2026-04-27 16:49 27.95792 -16.87389 4690 ft 244 kts 135°
2026-04-27 16:50 27.95011 -16.85780 4496 ft 229 kts 95°
2026-04-27 16:50 27.95237 -16.84081 4347 ft 214 kts 68°
2026-04-27 16:50 27.95726 -16.82542 4175 ft 206 kts 68°
2026-04-27 16:50 27.96221 -16.81040 3987 ft 201 kts 67°
2026-04-27 16:51 27.96721 -16.79572 3863 ft 198 kts 66°
2026-04-27 16:51 27.97213 -16.78144 3739 ft 194 kts 65°
2026-04-27 16:51 27.97698 -16.76741 3520 ft 189 kts 67°
2026-04-27 16:51 27.98174 -16.75365 3259 ft 186 kts 66°
2026-04-27 16:52 27.98638 -16.74024 3021 ft 184 kts 66°
2026-04-27 16:52 27.99104 -16.72677 2765 ft 183 kts 64°
2026-04-27 16:52 27.99565 -16.71346 2519 ft 182 kts 67°
2026-04-27 16:52 28.00024 -16.70019 2294 ft 181 kts 64°
2026-04-27 16:53 28.00474 -16.68724 2066 ft 171 kts 68°
2026-04-27 16:53 28.00888 -16.67525 1859 ft 157 kts 68°
2026-04-27 16:53 28.01273 -16.66411 1638 ft 149 kts 68°
2026-04-27 16:53 28.01657 -16.65305 1454 ft 152 kts 68°
2026-04-27 16:54 28.02046 -16.64181 1256 ft 154 kts 69°
2026-04-27 16:54 28.02431 -16.63056 1041 ft 152 kts 69°
2026-04-27 16:54 28.02816 -16.61948 831 ft 151 kts 69°
2026-04-27 16:54 28.03200 -16.60837 632 ft 152 kts 70°
2026-04-27 16:55 28.03592 -16.59720 430 ft 153 kts 71°
2026-04-27 16:55 28.03973 -16.58604 230 ft 150 kts 70°
2026-04-27 16:55 28.04333 -16.57576 189 ft 120 kts 66°
2026-04-27 16:55 28.04559 -16.56927 198 ft 59 kts 69°
2026-04-27 16:56 28.04712 -16.56562 205 ft 41 kts 50°
2026-04-27 16:56 28.04866 -16.56386 219 ft 22 kts 43°
2026-04-27 16:56 28.04932 -16.56417 218 ft 15 kts 255°
2026-04-27 16:56 28.04893 -16.56527 225 ft 15 kts 249°
2026-04-27 16:57 28.04856 -16.56633 223 ft 15 kts 248°
2026-04-27 16:57 28.04815 -16.56751 220 ft 18 kts 248°
2026-04-27 16:57 28.04767 -16.56887 221 ft 19 kts 249°
2026-04-27 16:57 28.04722 -16.57017 222 ft 11 kts 248°
2026-04-27 16:58 28.04719 -16.57026 222 ft 0 kts 248°
2026-04-27 16:58 28.04713 -16.57042 221 ft 6 kts 248°
2026-04-27 16:58 28.04693 -16.57111 223 ft 11 kts 270°
2026-04-27 16:58 28.04746 -16.57168 222 ft 12 kts 335°
2026-04-27 16:59 28.04777 -16.57245 226 ft 13 kts 251°
2026-04-27 16:59 28.04742 -16.57345 224 ft 14 kts 248°
2026-04-27 16:59 28.04705 -16.57448 225 ft 15 kts 248°
2026-04-27 16:59 28.04664 -16.57558 225 ft 15 kts 248°
2026-04-27 17:00 28.04603 -16.57733 223 ft 14 kts 248°
2026-04-27 17:00 28.04558 -16.57863 223 ft 13 kts 249°
2026-04-27 17:00 28.04528 -16.57957 223 ft 12 kts 250°
2026-04-27 17:01 28.04498 -16.58047 223 ft 12 kts 248°
2026-04-27 17:01 28.04467 -16.58134 223 ft 12 kts 248°
2026-04-27 17:01 28.04468 -16.58201 225 ft 8 kts 324°
2026-04-27 17:01 28.04513 -16.58222 225 ft 5 kts 338°
2026-04-27 17:02 28.04520 -16.58225 225 ft 0 kts 338°